| time (UTC) | temp C | wind direction | speed KPH | gust KPH | rain 1hr cm | rain 24hr cm | rain mn cm | humidity % | barometer mb |
| 20260504193022 | 23 | 54 | 3.2 | 11.3 | 0.00 | 0.00 | 0.00 | 31 | 1010.2 |
| 20260504193015 | 22 | 227 | 0.0 | 0.0 | 0.00 | 0.00 | 0.00 | 24 | 1008.6 |
| 20260504191519 | 23 | 91 | 0.0 | 9.7 | 0.00 | 0.00 | 0.00 | 30 | 1010.4 |
| 20260504191513 | 22 | 172 | 0.0 | 0.0 | 0.00 | 0.00 | 0.00 | 24 | 1008.7 |
| 20260504190020 | 23 | 138 | 4.8 | 16.1 | 0.00 | 0.00 | 0.00 | 30 | 1010.7 |
| 20260504190015 | 22 | 292 | 0.0 | 0.0 | 0.00 | 0.00 | 0.00 | 23 | 1009.1 |
| 20260504184529 | 23 | 197 | 6.4 | 11.3 | 0.00 | 0.00 | 0.00 | 30 | 1010.9 |
| 20260504184511 | 22 | 213 | 0.0 | 0.0 | 0.00 | 0.00 | 0.00 | 23 | 1009.1 |
| 20260504183012 | 23 | 101 | 3.2 | 14.5 | 0.00 | 0.00 | 0.00 | 31 | 1010.9 |
| 20260504183008 | 22 | 178 | 0.0 | 0.0 | 0.00 | 0.00 | 0.00 | 23 | 1009.1 |
| 20260504181512 | 22 | 233 | 0.0 | 0.0 | 0.00 | 0.00 | 0.00 | 24 | 1009.6 |
| 20260504181508 | 23 | 47 | 1.6 | 14.5 | 0.00 | 0.00 | 0.00 | 32 | 1011.3 |
| 20260504180008 | 22 | 214 | 0.0 | 0.0 | 0.00 | 0.00 | 0.00 | 24 | 1009.6 |
| 20260504180006 | 22 | 337 | 3.2 | 9.7 | 0.00 | 0.00 | 0.00 | 32 | 1011.3 |
| 20260504174505 | 22 | 313 | 0.0 | 0.0 | 0.00 | 0.00 | 0.00 | 25 | 1009.9 |
| 20260504173002 | 22 | 201 | 1.6 | 16.1 | 0.00 | 0.00 | 0.00 | 33 | 1011.7 |
| 20260504171604 | 22 | 18 | 4.8 | 9.7 | 0.00 | 0.00 | 0.00 | 33 | 1012.0 |
| 20260504171502 | 21 | 278 | 0.0 | 0.0 | 0.00 | 0.00 | 0.00 | 26 | 1010.1 |
| 20260504100107 | 9 | 220 | 0.0 | 0.0 | 0.00 | 0.00 | 0.00 | 45 | 1012.7 |
| 20260504090104 | 10 | 283 | 0.0 | 0.0 | 0.00 | 0.00 | 0.00 | 43 | 1012.4 |
| 20260504081552 | 10 | 248 | 0.0 | 0.0 | 0.00 | 0.00 | 0.00 | 42 | 1012.3 |
| 20260504081528 | 10 | 359 | 3.2 | 8.0 | 0.00 | 0.00 | 0.00 | 51 | 1014.2 |
| 20260504050012 | 11 | 40 | 1.6 | 8.0 | 0.00 | 0.00 | 0.00 | 46 | 1013.6 |
| 20260504044544 | 11 | 240 | 0.0 | 0.0 | 0.00 | 0.00 | 0.00 | 37 | 1011.8 |
| 20260504044507 | 11 | 278 | 3.2 | 8.0 | 0.00 | 0.00 | 0.00 | 46 | 1013.6 |
| 20260504043036 | 11 | 250 | 0.0 | 0.0 | 0.00 | 0.00 | 0.00 | 36 | 1011.7 |
| 20260504043009 | 11 | 110 | 0.0 | 4.8 | 0.00 | 0.00 | 0.00 | 45 | 1013.6 |
| 20260504041535 | 12 | 226 | 0.0 | 0.0 | 0.00 | 0.00 | 0.00 | 35 | 1011.5 |
| 20260504041502 | 11 | 71 | 1.6 | 6.4 | 0.00 | 0.00 | 0.00 | 44 | 1013.4 |
| 20260504040108 | 11 | 79 | 1.6 | 4.8 | 0.00 | 0.00 | 0.00 | 44 | 1013.3 |
| 20260504040044 | 12 | 245 | 0.0 | 0.0 | 0.00 | 0.00 | 0.00 | 35 | 1011.5 |
| 20260504034614 | 12 | 337 | 0.0 | 4.8 | 0.00 | 0.00 | 0.00 | 43 | 1013.3 |
| 20260504034533 | 12 | 243 | 0.0 | 0.0 | 0.00 | 0.00 | 0.03 | 34 | 1011.4 |
| 20260504033101 | 12 | 76 | 3.2 | 8.0 | 0.00 | 0.00 | 0.00 | 42 | 1013.3 |
| 20260504033033 | 12 | 249 | 0.0 | 0.0 | 0.00 | 0.00 | 0.03 | 33 | 1011.4 |
| 20260504031608 | 12 | 118 | 1.6 | 4.8 | 0.00 | 0.00 | 0.00 | 41 | 1013.2 |
| 20260504031532 | 12 | 248 | 0.0 | 0.0 | 0.00 | 0.00 | 0.03 | 32 | 1011.3 |
| 20260504030113 | 12 | 98 | 0.0 | 8.0 | 0.00 | 0.00 | 0.00 | 40 | 1013.1 |
| 20260504030031 | 12 | 228 | 0.0 | 0.0 | 0.00 | 0.00 | 0.03 | 31 | 1011.3 |
| 20260504024554 | 12 | 207 | 3.2 | 4.8 | 0.00 | 0.00 | 0.00 | 39 | 1013.1 |
| 20260504024532 | 13 | 241 | 0.0 | 0.0 | 0.00 | 0.00 | 0.03 | 30 | 1011.2 |
| 20260504023055 | 12 | 55 | 0.0 | 0.0 | 0.00 | 0.00 | 0.00 | 39 | 1013.2 |
| 20260504023030 | 13 | 227 | 0.0 | 0.0 | 0.00 | 0.00 | 0.03 | 29 | 1011.3 |
| 20260504021603 | 13 | 66 | 0.0 | 1.6 | 0.00 | 0.00 | 0.00 | 37 | 1013.2 |
| 20260504021530 | 13 | 231 | 0.0 | 0.0 | 0.00 | 0.00 | 0.03 | 28 | 1011.3 |
| 20260504020053 | 13 | 105 | 0.0 | 3.2 | 0.00 | 0.00 | 0.00 | 37 | 1013.2 |
| 20260504020031 | 13 | 244 | 0.0 | 0.0 | 0.00 | 0.00 | 0.03 | 28 | 1011.3 |
| 20260504014552 | 13 | 84 | 0.0 | 3.2 | 0.00 | 0.00 | 0.00 | 36 | 1013.1 |
| 20260504014530 | 13 | 274 | 0.0 | 0.0 | 0.00 | 0.00 | 0.03 | 28 | 1011.2 |
| 20260504013052 | 13 | 108 | 0.0 | 0.0 | 0.00 | 0.00 | 0.00 | 36 | 1012.9 |
| 20260504013036 | 13 | 235 | 0.0 | 0.0 | 0.00 | 0.00 | 0.03 | 28 | 1011.1 |
| 20260504011552 | 13 | 112 | 0.0 | 0.0 | 0.00 | 0.00 | 0.00 | 35 | 1012.8 |
| 20260504011528 | 13 | 233 | 0.0 | 0.0 | 0.00 | 0.00 | 0.03 | 27 | 1011.0 |
| 20260504010051 | 13 | 84 | 0.0 | 0.0 | 0.00 | 0.00 | 0.00 | 34 | 1012.6 |
| 20260504010027 | 13 | 215 | 0.0 | 0.0 | 0.00 | 0.00 | 0.03 | 26 | 1010.8 |
| 20260504004551 | 13 | 80 | 0.0 | 3.2 | 0.00 | 0.00 | 0.00 | 33 | 1012.5 |
| 20260504004527 | 13 | 217 | 0.0 | 0.0 | 0.00 | 0.00 | 0.03 | 25 | 1010.7 |
| 20260504003050 | 14 | 91 | 0.0 | 0.0 | 0.00 | 0.00 | 0.00 | 33 | 1012.3 |
| 20260504003026 | 14 | 269 | 0.0 | 0.0 | 0.00 | 0.00 | 0.03 | 25 | 1010.4 |
| 20260504001551 | 14 | 87 | 0.0 | 0.0 | 0.00 | 0.00 | 0.00 | 31 | 1012.0 |
| 20260504001526 | 14 | 233 | 0.0 | 0.0 | 0.00 | 0.00 | 0.03 | 24 | 1010.2 |
| 20260504000120 | 15 | 120 | 0.0 | 0.0 | 0.00 | 0.00 | 0.00 | 31 | 1011.8 |
| 20260504000025 | 15 | 248 | 0.0 | 0.0 | 0.00 | 0.00 | 0.03 | 24 | 1010.0 |
| 20260503234549 | 15 | 126 | 0.0 | 6.4 | 0.00 | 0.00 | 0.00 | 30 | 1011.6 |
| 20260503234527 | 15 | 281 | 0.0 | 0.0 | 0.00 | 0.00 | 0.03 | 23 | 1009.7 |
| 20260503233049 | 15 | 127 | 3.2 | 12.9 | 0.00 | 0.00 | 0.00 | 29 | 1011.4 |
| 20260503233024 | 15 | 308 | 0.0 | 0.0 | 0.00 | 0.00 | 0.03 | 22 | 1009.6 |
| 20260503231548 | 15 | 120 | 3.2 | 11.3 | 0.00 | 0.00 | 0.00 | 29 | 1011.4 |
| 20260503231524 | 15 | 304 | 0.0 | 0.0 | 0.00 | 0.00 | 0.03 | 22 | 1009.5 |
| 20260503230054 | 15 | 120 | 3.2 | 11.3 | 0.00 | 0.00 | 0.00 | 28 | 1011.2 |
| 20260503230029 | 15 | 322 | 0.0 | 0.0 | 0.00 | 0.00 | 0.03 | 21 | 1009.4 |
| 20260503224546 | 15 | 124 | 1.6 | 8.0 | 0.00 | 0.00 | 0.00 | 28 | 1011.1 |
| 20260503224523 | 15 | 311 | 0.0 | 0.0 | 0.00 | 0.00 | 0.03 | 21 | 1009.3 |
| 20260503223046 | 15 | 117 | 3.2 | 9.7 | 0.00 | 0.00 | 0.00 | 27 | 1011.2 |
| 20260503223022 | 15 | 325 | 0.0 | 0.0 | 0.00 | 0.00 | 0.03 | 21 | 1009.4 |
| 20260503221545 | 16 | 158 | 4.8 | 16.1 | 0.00 | 0.00 | 0.00 | 27 | 1011.1 |
| 20260503221522 | 15 | 260 | 0.0 | 0.0 | 0.00 | 0.00 | 0.03 | 20 | 1009.2 |
| 20260503220044 | 15 | 113 | 4.8 | 17.7 | 0.00 | 0.00 | 0.00 | 26 | 1011.1 |
| 20260503220022 | 15 | 357 | 0.0 | 0.0 | 0.00 | 0.00 | 0.03 | 20 | 1009.3 |
| 20260503214543 | 16 | 219 | 6.4 | 14.5 | 0.00 | 0.00 | 0.00 | 26 | 1011.3 |
| 20260503214522 | 15 | 323 | 0.0 | 0.0 | 0.00 | 0.00 | 0.03 | 20 | 1009.4 |
| 20260503213042 | 15 | 150 | 4.8 | 16.1 | 0.00 | 0.00 | 0.00 | 26 | 1011.2 |
| 20260503213021 | 15 | 212 | 0.0 | 0.0 | 0.00 | 0.00 | 0.03 | 20 | 1009.2 |
| 20260503211543 | 15 | 134 | 8.0 | 16.1 | 0.00 | 0.00 | 0.00 | 26 | 1011.0 |
| 20260503211532 | 15 | 332 | 0.0 | 0.0 | 0.00 | 0.00 | 0.03 | 20 | 1009.2 |
| 20260503210041 | 15 | 146 | 3.2 | 11.3 | 0.00 | 0.00 | 0.00 | 27 | 1011.0 |
| 20260503210020 | 15 | 332 | 0.0 | 0.0 | 0.00 | 0.00 | 0.03 | 21 | 1009.1 |
| 20260503204540 | 15 | 104 | 3.2 | 14.5 | 0.00 | 0.00 | 0.00 | 28 | 1010.9 |
| 20260503204519 | 15 | 298 | 0.0 | 0.0 | 0.00 | 0.00 | 0.03 | 22 | 1009.1 |
| 20260503203042 | 15 | 159 | 4.8 | 11.3 | 0.00 | 0.00 | 0.00 | 28 | 1011.2 |
| 20260503203018 | 15 | 320 | 0.0 | 0.0 | 0.00 | 0.00 | 0.03 | 21 | 1009.2 |
| 20260503201537 | 15 | 145 | 4.8 | 11.3 | 0.00 | 0.00 | 0.00 | 28 | 1011.1 |
| 20260503201517 | 15 | 310 | 0.0 | 0.0 | 0.00 | 0.00 | 0.03 | 21 | 1009.5 |
| 20260503200036 | 15 | 124 | 3.2 | 16.1 | 0.00 | 0.00 | 0.00 | 28 | 1011.3 |
| 20260503200016 | 15 | 305 | 0.0 | 0.0 | 0.00 | 0.00 | 0.03 | 22 | 1009.5 |
| 20260503194536 | 15 | 255 | 3.2 | 14.5 | 0.00 | 0.00 | 0.00 | 29 | 1011.5 |
| 20260503194514 | 15 | 248 | 0.0 | 0.0 | 0.00 | 0.00 | 0.03 | 22 | 1009.6 |